Sherman Airfield (FLV)
Ft Leavenworth, KS
Field Elevation: 772
Lat: 39°22.10N  Long: 94°54.89W
CTAF/Unicom Freq: 126.2000
   
    
Weather Advisories
9/20/2014 19:57 Z
Altimeter 29.91" Hg
Wind 230° @ 3 KT
Gusts --
Visibility 10 SM
Temperature 28° C (82° F)
Dewpoint 23° C (73° F)
Relative Humidity 74%
Density Altitude 2,400 feet
Condensation Altitude 3,300 feet
Heat Index 31° C (88° F)
  Wind and Runways
Indicated Runway = 16
History
 
 
More Info
All DigiWx sites map
Weather Radar
NOAA Forecast
 
Airport IQ 5010
(K68) Garnett Municipal
(GRE) Greenville
 
about DigiWx
 
FAA Disclaimer: The data displayed is for advisory purposes only and is not to be used for flight planning or operations. For official data, please call (not available) to hear the current automated AWOS voice message.
  METAR FLV 201957Z AUTO 23003KT 10SM 28/23 A2991